EW8805 Weather Reports


Display with metric or nautical units.
time (UTC)temp
F
wind
direction
speed
MPH
gust
MPH
rain 1hr
in
rain 24hr
in
rain mn
in
humidity
%
barometer
mb
20260508065522 51 53 4.0 6.0 0.00 0.02 0.00 92 1011.1
20260508065045 50 56 1.0 6.0 0.00 0.02 0.00 92 1011.0
20260508064520 50 58 4.0 6.0 0.00 0.02 0.00 92 1011.1
20260508064043 50 46 2.0 3.0 0.00 0.02 0.00 92 1011.2
20260508063524 0 0.0 0.0 0.00 0.02 0.00 1011.2
20260508063031 0 0.0 0.0 0.00 0.02 0.00 1011.3
20260508062531 0 0.0 0.0 0.00 0.02 0.00 1011.2
20260508062041 0 0.0 0.0 0.00 0.02 0.00 1011.1
20260508061543 0 0.0 0.0 0.00 0.02 0.00 1011.3
20260508061031 0 0.0 0.0 0.00 0.02 0.00 1011.2
20260508060544 0 0.0 0.0 0.00 0.02 0.00 1011.0
20260508060047 0 0.0 0.0 0.00 0.02 0.00 1010.8
20260508055520 0 0.0 0.0 0.00 0.02 0.00 1010.9
20260508055058 0 0.0 0.0 0.00 0.02 0.00 1010.9
20260508054542 0 0.0 0.0 0.00 0.02 0.00 1011.0
20260508054045 0 0.0 0.0 0.00 0.02 0.00 1011.0
20260508053539 0 0.0 0.0 0.00 0.02 0.00 1011.1
20260508053048 0 0.0 0.0 0.00 0.02 0.00 1010.9
20260508052554 0 0.0 0.0 0.00 0.02 0.00 1010.8
20260508052028 0 0.0 0.0 0.00 0.02 0.00 1010.8
20260508051530 0 0.0 0.0 0.00 0.02 0.00 1011.0
20260508051026 0 0.0 0.0 0.00 0.02 0.00 1010.9
20260508050528 0 0.0 0.0 0.00 0.02 0.00 1010.9
20260508050048 0 0.0 0.0 0.00 0.02 0.00 1010.9
20260508045556 0 0.0 0.0 0.00 0.02 0.00 1010.8
20260508045043 0 0.0 0.0 0.00 0.02 0.00 1010.8
20260508044527 0 0.0 0.0 0.00 0.02 0.00 1010.7
20260508044034 49 273 0.0 0.0 0.00 0.02 0.00 92 1010.8
20260508043528 49 273 0.0 0.0 0.00 0.02 0.00 92 1010.9
20260508043027 49 273 0.0 0.0 0.00 0.02 0.00 93 1010.8
20260508042545 49 60 0.0 0.0 0.00 0.02 0.00 93 1010.8
20260508042056 49 60 0.0 0.0 0.00 0.02 0.00 92 1010.6
20260508041538 49 60 0.0 0.0 0.00 0.02 0.00 92 1010.4
20260508041036 49 60 0.0 0.0 0.00 0.02 0.00 93 1010.4
20260508040542 49 60 0.0 0.0 0.00 0.02 0.00 92 1010.4
20260508040058 49 67 0.0 0.0 0.00 0.02 0.00 92 1010.4
20260508035524 49 67 0.0 0.0 0.00 0.02 0.00 92 1010.5
20260508035025 49 67 0.0 1.0 0.00 0.02 0.00 92 1010.5
20260508034604 49 67 0.0 1.0 0.00 0.02 0.00 92 1010.5
20260508034029 49 67 0.0 0.0 0.00 0.02 0.00 92 1010.5
20260508033607 49 66 0.0 0.0 0.00 0.02 0.00 92 1010.4
20260508033033 49 67 0.0 0.0 0.00 0.02 0.00 92 1010.4
20260508032532 49 67 0.0 0.0 0.00 0.02 0.00 92 1010.4
20260508032042 49 66 0.0 0.0 0.00 0.02 0.00 92 1010.4
20260508031529 49 77 0.0 1.0 0.00 0.02 0.00 92 1010.5
20260508031027 49 64 0.0 2.0 0.00 0.02 0.00 93 1010.6
20260508030542 49 44 1.0 2.0 0.00 0.02 0.00 93 1010.6
20260508030047 49 44 0.0 1.0 0.00 0.02 0.00 92 1010.6
20260508025527 49 44 0.0 3.0 0.00 0.02 0.00 92 1010.5
20260508025038 49 44 1.0 3.0 0.00 0.02 0.00 92 1010.4
20260508024548 49 73 0.0 0.0 0.00 0.02 0.00 92 1010.4
20260508024034 49 74 0.0 2.0 0.00 0.02 0.00 92 1010.4
20260508023537 49 84 0.0 2.0 0.00 0.02 0.00 92 1010.5
20260508023020 49 85 0.0 3.0 0.00 0.02 0.00 92 1010.5
20260508022540 49 68 1.0 4.0 0.00 0.02 0.00 91 1010.4
20260508022040 49 88 2.0 4.0 0.00 0.02 0.00 91 1010.4
20260508021541 49 61 1.0 4.0 0.00 0.02 0.00 91 1010.4
20260508021043 50 94 2.0 4.0 0.00 0.02 0.00 91 1010.4
20260508020544 49 91 1.0 4.0 0.00 0.02 0.00 91 1010.5
20260508020054 49 76 2.0 4.0 0.00 0.02 0.00 91 1010.5
20260508015545 50 95 1.0 4.0 0.00 0.02 0.00 91 1010.4
20260508015048 50 84 2.0 4.0 0.00 0.02 0.00 91 1010.4
20260508014535 50 80 2.0 5.0 0.00 0.02 0.00 91 1010.5
20260508014035 50 92 2.0 5.0 0.00 0.02 0.00 91 1010.4
20260508013523 50 73 2.0 5.0 0.00 0.02 0.00 91 1010.5
20260508013042 50 86 2.0 6.0 0.00 0.02 0.00 91 1010.5
20260508012558 50 83 4.0 6.0 0.00 0.02 0.00 91 1010.5
20260508012044 50 81 3.0 5.0 0.00 0.02 0.00 91 1010.6
20260508011525 50 88 0.0 5.0 0.00 0.02 0.00 91 1010.7
20260508011020 50 65 4.0 5.0 0.00 0.02 0.00 91 1010.8
20260508010550 50 54 4.0 5.0 0.00 0.02 0.00 90 1010.7
20260508010100 50 64 3.0 5.0 0.00 0.02 0.00 90 1010.8
20260508005524 50 62 3.0 5.0 0.00 0.02 0.00 90 1010.8
20260508005036 50 74 3.0 6.0 0.00 0.02 0.00 90 1010.9
20260508004541 50 83 3.0 6.0 0.00 0.02 0.00 90 1011.0
20260508004023 50 70 5.0 5.0 0.00 0.02 0.00 90 1011.0
20260508003540 50 61 3.0 6.0 0.00 0.02 0.00 89 1011.0
20260508003044 50 65 4.0 7.0 0.00 0.02 0.00 89 1011.1
20260508002527 51 61 5.0 7.0 0.00 0.02 0.00 89 1011.0
20260508002025 51 86 3.0 7.0 0.00 0.02 0.00 89 1011.1
20260508001539 51 72 5.0 6.0 0.00 0.02 0.00 89 1011.2
20260508001024 51 84 3.0 5.0 0.00 0.02 0.00 89 1011.3
20260508000602 51 63 3.0 5.0 0.00 0.02 0.00 88 1011.3
20260508000052 51 67 3.0 6.0 0.00 0.02 0.00 88 1011.3
20260507235545 51 71 5.0 7.0 0.00 0.02 0.00 88 1011.3
20260507235023 51 77 5.0 7.0 0.00 0.02 0.00 87 1011.4
20260507234538 51 60 5.0 7.0 0.00 0.02 0.00 87 1011.4
20260507234030 51 72 4.0 6.0 0.00 0.02 0.00 87 1011.5
20260507233542 52 86 3.0 6.0 0.00 0.02 0.00 87 1011.6
20260507233027 52 66 4.0 9.0 0.00 0.02 0.00 86 1011.6
20260507232555 52 70 5.0 9.0 0.00 0.02 0.00 86 1011.6
20260507232034 52 61 6.0 9.0 0.00 0.02 0.00 86 1011.6
20260507231541 52 56 6.0 9.0 0.00 0.02 0.00 85 1011.6
20260507231039 52 75 5.0 9.0 0.00 0.02 0.00 85 1011.7
20260507230528 53 80 6.0 10.0 0.00 0.02 0.00 84 1011.8
20260507230047 53 63 5.0 10.0 0.00 0.02 0.00 84 1011.8
20260507225538 53 60 7.0 10.0 0.00 0.02 0.00 84 1011.8
20260507225048 53 68 6.0 10.0 0.00 0.02 0.00 83 1011.8
20260507224530 53 84 6.0 11.0 0.00 0.02 0.00 82 1011.9
20260507224035 54 68 8.0 11.0 0.00 0.02 0.00 82 1011.9
20260507223525 54 74 8.0 10.0 0.00 0.02 0.00 82 1011.9
20260507223027 54 58 7.0 14.0 0.00 0.02 0.00 81 1011.9
20260507222522 54 69 7.0 14.0 0.00 0.02 0.00 80 1012.0
20260507222028 54 60 8.0 14.0 0.00 0.02 0.00 80 1012.0
20260507221527 55 58 7.0 14.0 0.00 0.02 0.00 79 1012.0
20260507221036 55 76 9.0 11.0 0.00 0.02 0.00 79 1012.0
20260507220535 55 66 7.0 10.0 0.00 0.02 0.00 78 1012.0
20260507215542 56 77 7.0 11.0 0.00 0.02 0.02 76 1012.0
20260507215045 56 61 6.0 10.0 0.00 0.02 0.02 75 1012.1
20260507214524 56 64 7.0 10.0 0.00 0.02 0.02 73 1012.0
20260507214020 57 56 5.0 9.0 0.00 0.02 0.02 71 1012.0
20260507213528 57 75 5.0 8.0 0.00 0.02 0.02 70 1012.0
20260507213027 57 85 4.0 9.0 0.00 0.02 0.02 70 1011.9
20260507212605 58 66 4.0 10.0 0.00 0.02 0.02 70 1011.8
20260507212054 58 77 6.0 11.0 0.00 0.02 0.02 70 1011.8
20260507211522 58 63 6.0 12.0 0.00 0.02 0.02 70 1011.7
20260507211045 57 44 8.0 16.0 0.00 0.02 0.02 72 1011.7
20260507210534 57 68 9.0 16.0 0.00 0.02 0.02 72 1011.6
20260507210049 57 74 12.0 15.0 0.00 0.02 0.02 74 1011.6
20260507205545 57 64 7.0 11.0 0.00 0.02 0.02 75 1011.5
20260507205025 57 87 4.0 9.0 0.00 0.02 0.02 76 1011.5
20260507204537 56 65 7.0 8.0 0.00 0.02 0.02 78 1011.5
20260507204027 56 61 4.0 8.0 0.00 0.02 0.02 79 1011.5
20260507203532 56 49 2.0 8.0 0.00 0.02 0.02 79 1011.4
20260507203022 56 25 4.0 8.0 0.00 0.02 0.02 79 1011.2
20260507202543 56 65 4.0 5.0 0.00 0.02 0.02 78 1011.1
20260507202039 56 64 4.0 5.0 0.00 0.02 0.02 77 1010.9
20260507201545 56 70 4.0 6.0 0.00 0.02 0.02 77 1010.9
20260507201058 57 60 5.0 6.0 0.00 0.02 0.02 77 1010.8
20260507200551 57 52 4.0 5.0 0.00 0.02 0.02 77 1010.6
20260507200119 57 56 2.0 4.0 0.00 0.02 0.02 76 1010.5
20260507195606 58 44 0.0 4.0 0.00 0.02 0.02 73 1010.5
20260507195025 58 71 0.0 2.0 0.00 0.02 0.02 71 1010.5
20260507194552 58 80 0.0 1.0 0.00 0.02 0.02 71 1010.5
20260507194038 58 79 0.0 1.0 0.00 0.02 0.02 71 1010.5
20260507193523 58 79 0.0 3.0 0.00 0.02 0.02 70 1010.4
20260507193030 59 79 2.0 4.0 0.00 0.02 0.02 68 1010.2
20260507192544 59 72 1.0 4.0 0.00 0.02 0.02 68 1010.2
20260507192044 59 96 2.0 5.0 0.00 0.02 0.02 67 1010.0
20260507191530 59 70 2.0 6.0 0.00 0.02 0.02 67 1009.8
20260507191023 59 85 4.0 6.0 0.00 0.02 0.02 67 1009.7
20260507190538 60 89 4.0 10.0 0.00 0.02 0.02 67 1009.8
20260507190110 60 107 5.0 11.0 0.00 0.02 0.02 66 1009.7
20260507185547 60 98 5.0 11.0 0.00 0.02 0.02 66 1009.6
20260507185028 60 85 6.0 12.0 0.00 0.02 0.02 65 1009.4
20260507184534 60 111 8.0 12.0 0.00 0.02 0.02 65 1009.3
20260507184033 60 117 7.0 15.0 0.00 0.02 0.02 66 1009.3
20260507183537 60 58 10.0 18.0 0.00 0.02 0.02 66 1009.2
20260507183106 60 82 9.0 18.0 0.00 0.02 0.02 66 1009.1
20260507182520 61 98 13.0 16.0 0.00 0.02 0.02 66 1009.1
20260507182037 61 103 11.0 16.0 0.00 0.02 0.02 65 1009.0
20260507181521 61 101 8.0 17.0 0.00 0.02 0.02 65 1009.0
20260507181051 61 146 14.0 17.0 0.00 0.02 0.02 65 1009.0
20260507180535 61 117 12.0 18.0 0.01 0.02 0.02 64 1008.9
20260507180057 62 122 12.0 22.0 0.02 0.02 0.02 63 1008.9
20260507175546 62 135 16.0 22.0 0.02 0.02 0.02 62 1008.8
20260507175023 63 101 10.0 19.0 0.02 0.02 0.02 62 1008.7
20260507174605 63 76 10.0 19.0 0.02 0.02 0.02 61 1008.7
20260507174026 63 70 7.0 13.0 0.02 0.02 0.02 58 1008.7
20260507173529 63 51 2.0 5.0 0.02 0.02 0.02 61 1008.6
20260507173029 63 54 4.0 7.0 0.02 0.02 0.02 62 1008.6
20260507172523 63 60 3.0 7.0 0.02 0.02 0.02 64 1008.5
20260507172025 63 61 6.0 8.0 0.02 0.02 0.02 61 1008.5
20260507171541 63 75 6.0 8.0 0.02 0.02 0.02 61 1008.4
20260507171042 63 72 5.0 7.0 0.02 0.02 0.02 58 1008.4
20260507170529 64 72 4.0 7.0 0.01 0.01 0.01 53 1008.5
20260507170106 65 53 2.0 9.0 0.00 0.00 0.00 52 1008.5
20260507165543 65 91 5.0 9.0 0.00 0.00 0.00 49 1008.4
20260507165027 65 110 5.0 11.0 0.00 0.00 0.00 48 1008.3
20260507164536 65 70 8.0 11.0 0.00 0.00 0.00 49 1008.2
20260507164043 65 84 7.0 10.0 0.00 0.00 0.00 50 1008.2
20260507163527 65 98 8.0 11.0 0.00 0.00 0.00 50 1008.2
20260507163025 66 96 6.0 12.0 0.00 0.00 0.00 50 1008.2
20260507162541 66 78 8.0 12.0 0.00 0.00 0.00 51 1008.2
20260507162021 66 64 6.0 12.0 0.00 0.00 0.00 50 1008.2
20260507161540 66 104 9.0 12.0 0.00 0.00 0.00 51 1008.2
20260507161025 66 75 8.0 13.0 0.00 0.00 0.00 49 1008.2
20260507160529 66 46 10.0 12.0 0.00 0.00 0.00 48 1008.2
20260507160058 66 76 9.0 14.0 0.00 0.00 0.00 47 1008.2
20260507155540 66 64 8.0 14.0 0.00 0.00 0.00 46 1008.1
20260507155038 66 90 6.0 12.0 0.00 0.00 0.00 48 1008.0
20260507154524 66 86 6.0 8.0 0.00 0.00 0.00 47 1008.2
20260507154051 65 98 5.0 10.0 0.00 0.00 0.00 47 1008.2
20260507153540 65 49 6.0 13.0 0.00 0.00 0.00 47 1008.2
20260507153058 65 56 9.0 14.0 0.00 0.00 0.00 48 1008.3
20260507152542 65 75 9.0 14.0 0.00 0.00 0.00 48 1008.2
20260507152039 66 53 8.0 16.0 0.00 0.00 0.00 48 1008.2
20260507151547 66 95 11.0 17.0 0.00 0.00 0.00 48 1008.3
20260507151026 65 72 10.0 16.0 0.00 0.00 0.00 48 1008.3
20260507150541 65 60 13.0 16.0 0.00 0.00 0.00 48 1008.3
20260507150100 66 72 12.0 15.0 0.00 0.00 0.00 48 1008.5
20260507145540 66 79 8.0 14.0 0.00 0.00 0.00 47 1008.5
20260507145022 67 74 7.0 14.0 0.00 0.00 0.00 46 1008.5
20260507144556 68 75 11.0 14.0 0.00 0.00 0.00 44 1008.6
20260507144045 69 110 9.0 12.0 0.00 0.00 0.00 41 1008.7
20260507143547 70 107 0.0 12.0 0.00 0.00 0.00 35 1008.8
20260507143036 70 243 7.0 12.0 0.00 0.00 0.00 35 1008.8
20260507142525 70 208 5.0 12.0 0.00 0.00 0.00 35 1008.8
20260507142037 70 225 3.0 6.0 0.00 0.00 0.00 36 1008.8
20260507141545 70 258 1.0 12.0 0.00 0.00 0.00 36 1008.7
20260507141052 70 177 6.0 12.0 0.00 0.00 0.00 36 1008.8
20260507140545 70 232 7.0 11.0 0.00 0.00 0.00 37 1008.8
20260507140045 69 246 1.0 7.0 0.00 0.00 0.00 38 1008.8
20260507135529 68 223 1.0 7.0 0.00 0.00 0.00 38 1008.9
20260507135106 68 211 4.0 7.0 0.00 0.00 0.00 39 1008.9
20260507134542 68 253 3.0 11.0 0.00 0.00 0.00 40 1008.9
20260507134045 68 238 4.0 11.0 0.00 0.00 0.00 40 1009.0
20260507133536 68 271 4.0 10.0 0.00 0.00 0.00 40 1008.9
20260507133044 68 285 4.0 9.0 0.00 0.00 0.00 41 1009.1
20260507132556 68 293 1.0 10.0 0.00 0.00 0.00 42 1009.2
20260507132042 68 281 5.0 10.0 0.00 0.00 0.00 41 1009.2
20260507131532 67 274 3.0 9.0 0.00 0.00 0.00 41 1009.4
20260507131043 67 280 6.0 10.0 0.00 0.00 0.00 42 1009.3
20260507130526 66 109 1.0 10.0 0.00 0.00 0.00 43 1009.4
20260507130058 66 226 5.0 15.0 0.00 0.00 0.00 45 1009.4
20260507125535 65 260 7.0 15.0 0.00 0.00 0.00 46 1009.4
20260507125022 66 267 7.0 16.0 0.00 0.00 0.00 46 1009.4
20260507124531 66 232 6.0 17.0 0.00 0.00 0.00 47 1009.4
20260507124100 65 256 9.0 17.0 0.00 0.00 0.00 46 1009.4
20260507123523 66 256 10.0 16.0 0.00 0.00 0.00 46 1009.5
20260507123031 66 235 10.0 15.0 0.00 0.00 0.00 44 1009.5
20260507122605 67 210 8.0 12.0 0.00 0.00 0.00 43 1009.6
20260507122025 67 203 6.0 11.0 0.00 0.00 0.00 42 1009.6
20260507121556 67 161 6.0 8.0 0.00 0.00 0.00 43 1009.6
20260507121047 66 198 1.0 8.0 0.00 0.00 0.00 44 1009.6
20260507120531 66 201 3.0 12.0 0.00 0.00 0.00 44 1009.8
20260507120103 66 108 5.0 14.0 0.00 0.00 0.00 45 1009.7
20260507115528 66 80 9.0 14.0 0.00 0.00 0.00 43 1009.8
20260507115032 66 109 6.0 10.0 0.00 0.00 0.00 44 1009.8
20260507114608 66 120 5.0 12.0 0.00 0.00 0.00 45 1009.9
20260507114021 65 103 8.0 12.0 0.00 0.00 0.00 46 1010.0
20260507113522 65 58 6.0 12.0 0.00 0.00 0.00 47 1010.0
20260507113030 64 97 7.0 12.0 0.00 0.00 0.00 49 1010.1
20260507112546 65 77 7.0 12.0 0.00 0.00 0.00 48 1010.2
20260507112023 66 103 8.0 11.0 0.00 0.00 0.00 47 1010.2
20260507111522 66 304 0.0 10.0 0.00 0.00 0.00 46 1010.1
20260507111027 66 297 1.0 4.0 0.00 0.00 0.00 45 1010.2
20260507110534 66 111 0.0 5.0 0.00 0.00 0.00 44 1010.1
20260507110056 66 224 3.0 6.0 0.00 0.00 0.00 44 1010.1
20260507105539 67 138 4.0 7.0 0.00 0.00 0.00 42 1010.1
20260507105040 67 158 3.0 7.0 0.00 0.00 0.00 43 1010.1
20260507104536 67 149 1.0 6.0 0.00 0.00 0.00 43 1010.1
20260507104034 66 243 2.0 9.0 0.00 0.00 0.00 43 1010.1
20260507103543 66 235 0.0 9.0 0.00 0.00 0.00 45 1010.2
20260507103028 66 159 1.0 9.0 0.00 0.00 0.00 43 1010.2
20260507102529 66 211 6.0 8.0 0.00 0.00 0.00 45 1010.2
20260507102043 66 262 3.0 9.0 0.00 0.00 0.00 47 1010.3
20260507101523 66 218 1.0 10.0 0.00 0.00 0.00 45 1010.3
20260507101023 65 281 6.0 10.0 0.00 0.00 0.00 49 1010.4
20260507100538 65 256 6.0 9.0 0.00 0.00 0.00 50 1010.5
20260507100127 64 262 3.0 9.0 0.00 0.00 0.00 52 1010.5
20260507095533 64 191 0.0 9.0 0.00 0.00 0.00 52 1010.5
20260507095035 63 255 6.0 9.0 0.00 0.00 0.00 54 1010.6
20260507094540 63 264 5.0 9.0 0.00 0.00 0.00 53 1010.6
20260507094022 63 264 4.0 9.0 0.00 0.00 0.00 54 1010.5
20260507093525 63 267 8.0 9.0 0.00 0.00 0.00 56 1010.4
20260507093044 62 259 2.0 9.0 0.00 0.00 0.00 57 1010.4
20260507092533 62 295 7.0 9.0 0.00 0.00 0.00 57 1010.4
20260507092029 63 280 5.0 9.0 0.00 0.00 0.00 55 1010.5
20260507091538 62 276 4.0 10.0 0.00 0.00 0.00 55 1010.4
20260507091040 62 262 8.0 13.0 0.00 0.00 0.00 54 1010.5
20260507090540 62 253 8.0 13.0 0.00 0.00 0.00 54 1010.5
20260507090101 62 250 3.0 9.0 0.00 0.00 0.00 55 1010.6
20260507085538 62 242 6.0 9.0 0.00 0.00 0.00 58 1010.5
20260507085025 61 239 5.0 10.0 0.00 0.00 0.00 61 1010.5
20260507084537 61 246 6.0 10.0 0.00 0.00 0.00 60 1010.5
20260507084042 61 245 6.0 8.0 0.00 0.00 0.00 61 1010.6
20260507083530 61 264 5.0 8.0 0.00 0.00 0.00 61 1010.6
20260507083042 61 288 2.0 6.0 0.00 0.00 0.00 61 1010.6
20260507082523 60 208 2.0 6.0 0.00 0.00 0.00 62 1010.6
20260507082033 59 210 0.0 3.0 0.00 0.00 0.00 65 1010.5
20260507081530 58 207 0.0 3.0 0.00 0.00 0.00 66 1010.6
20260507081027 57 248 1.0 3.0 0.00 0.00 0.00 64 1010.6
20260507080529 57 125 0.0 0.0 0.00 0.00 0.00 66 1010.4
20260507080058 56 122 0.0 0.0 0.00 0.00 0.00 68 1010.4
20260507075534 55 212 0.0 0.0 0.00 0.00 0.00 72 1010.5
20260507075019 55 221 0.0 3.0 0.00 0.00 0.00 73 1010.5
20260507074524 54 98 0.0 3.0 0.00 0.00 0.00 75 1010.3
20260507074028 54 90 0.0 4.0 0.00 0.00 0.00 76 1010.3
20260507073530 54 89 3.0 5.0 0.00 0.00 0.00 75 1010.3
20260507073044 54 70 2.0 5.0 0.00 0.00 0.00 78 1010.3
20260507072532 53 119 0.0 4.0 0.00 0.00 0.00 79 1010.1
20260507072028 53 75 2.0 4.0 0.00 0.00 0.00 80 1010.1
20260507071543 52 82 0.0 2.0 0.00 0.00 0.00 80 1010.0
20260507071030 52 102 0.0 1.0 0.00 0.00 0.00 81 1010.0
20260507070533 52 354 0.0 2.0 0.00 0.00 0.00 82 1010.0
20260507070107 52 56 0.0 2.0 0.00 0.00 0.00 81 1010.0